Regional Weather Roundup
Issued by NWS Pendleton, OR

Home | Current Version | Previous Version | Text Only | Print | Product List | Glossary On
Versions: 1 2 3 4 5 6 7 8 9 10 11 12 13 14 15 16 17 18 19 20 21 22 23 24 25 26 27 28 29 30 31 32 33 34 35 36 37 38 39 40 41 42 43 44 45 46 47 48 49 50
000
ASUS46 KPDT 290425
RWRPDT
PENDLETON REGIONAL WEATHER ROUNDUP
NATIONAL WEATHER SERVICE PENDLETON OREGON
900 PM PDT SAT MAR 28 2015

NOTE: FAIR INDICATES FEW OR NO CLOUDS BELOW 12,000 FEET WITH NO
SIGNIFICANT WEATHER AND/OR OBSTRUCTIONS TO VISIBILITY.

# INDICATES UNOFFICIAL STATION AND DATA

WAZ520-290510-
EAST SLOPES OF WASHINGTON CASCADES

CITY            SKY/WX      TMP DP  RH  WIND    PRES   REMARKS
#BUMPING DAM    N/A         41  N/A N/A S2      N/A
#CLE ELUM HS    N/A         44  39  82  SW1     30.24S
#CLE ELUM LAKE  N/A         43  38  82  W1      30.27F
#CLIFFDEL 2NW   N/A         43  35  73  N3      N/A
#GLENWOOD       N/A         47  39  74  SW1     30.29S
#MANASTASH CYN  N/A         42  33  70  CALM    30.23S
#NELSON         N/A         45  41  86  CALM    30.31S
#NELSON 3SW     N/A         40  38  92  CALM    30.50F
#NILE           N/A         46  36  68  CALM    29.53R
#RONALD 2NW     N/A         45   9  22  NE3     30.13F
#SNOWDEN        N/A         41  28  59  CALM    N/A
#TEANAWAY 4NE   N/A         46  40  79  CALM    N/A
#TROUT LAKE 1NE N/A         45  40  82  CALM    30.32S
$$

WAZ521-290510-
SIMCOE HIGHLANDS

CITY            SKY/WX      TMP DP  RH  WIND    PRES   REMARKS
#CENTERVILLE 4W N/A         49  37  63  NW9     30.03S
#CENTERVILLE 1SWN/A         47  36  65  NW5     30.28F
#GOLDENDALE     N/A         47  36  65  W7      N/A
#GOLDENDALE 1NE N/A         48  28  46  W5      N/A
#GOLDENDALE 5WNWN/A         47  38  71  CALM    30.29
#GOODNOE HILLS  N/A         50  38  63  NW12    N/A
#LYLE 6NE       N/A         49  37  63  NW6     30.29S
$$

WAZ026-290510-
KITTITAS VALLEY

CITY            SKY/WX      TMP DP  RH  WIND    PRES   REMARKS
ELLENSBURG AP   MOCLDY      48  37  65  W10     30.28R
#ELLENSBURG CWU N/A         48  39  71  NW6     30.23R
#ELLENSBURG 3NE N/A         47  39  74  W6      30.26R
#ELLENSBURG 1E  N/A         49  35  58  CALM    N/A
#KITTITAS 4N    N/A         46  37  71  W1      28.58R
#KITTITAS 3S    N/A         47  39  74  W2      30.26R
#THORP 6N       N/A         45  39  79  NW15    30.29S WCI 38
$$

WAZ027-290510-
YAKIMA VALLEY

CITY            SKY/WX      TMP DP  RH  WIND    PRES   REMARKS
SUNNYSIDE AP    MOCLDY      44  38  79  N6      30.29R
YAKIMA AIRPORT  MOCLDY      56  34  43  NW5     30.28R
YAKIMA-VAGABOND MOCLDY      51  38  61  E8      30.27R
#DONALD 2NE     N/A         54  26  34  CALM    29.12R
#GRANDVIEW      N/A         52  37  56  CALM    30.29R
#MABTON         N/A         52  39  61  CALM    30.27S
#MOXEE 2E       N/A         52  29  41  NE6     30.20R
#NACHES 2SW     N/A         51  38  61  W5      30.27R
#OUTLOOK DOT    N/A         N/A N/A N/A W5      N/A
#SELAH 8E       N/A         46  36  68  E3      N/A
#TERRACE HTS    N/A         53  38  57  CALM    30.23R
#TOPPENISH      N/A         56  39  53  CALM    30.19R
#WAPATO 4NE     N/A         54  26  34  CALM    29.12R
#WEST VALLEY    N/A         55  36  49  W2      30.24R
#W YAKIMA       N/A         54  36  50  NE1     30.26R
#WHITE SWAN 5E  N/A         55  38  53  W7      30.26S
#WILEY CITY 3W  N/A         46  21  37  CALM    30.26S
$$

WAZ028-290510-
LOWER COLUMBIA BASIN...WASHINGTON

CITY            SKY/WX      TMP DP  RH  WIND    PRES   REMARKS
PASCO           CLEAR       52  38  59  SW8     30.29R
PROSSER AWOS    N/A         48  39  71  E2      30.32R
RICHLAND AWOS   CLEAR       54  39  57  CALM    30.29R
#BASIN CITY 5SW N/A         53  37  54  W5      30.28R
#BENTON CITY    N/A         51  39  63  W6      30.19R
#CONNELL 5N     N/A         50  38  63  W3      30.26R
#CONNELL 5NW    N/A         53  37  54  W2      30.23R
#ELTOPIA        N/A         51  42  71  CALM    30.25R
#ELTOPIA 6NW    N/A         53  38  57  SE1     29.24S
#KAHLOTUS       N/A         52  39  61  SW6     30.28R
#KENNEWICK 3S   N/A         51  38  61  S3      30.29R
#PASCO-BROADMOORN/A         54  40  59  CALM    30.19R
#PATERSON       N/A         51  40  66  W2      30.27S
#PROSSER        N/A         55  35  47  CALM    30.27S
#SAGEMOOR 2W    N/A         49  39  68  CALM    30.12R
#TOUCHET 2S     N/A         53  40  61  S8      30.28R
#WEST PASCO     N/A         54  38  55  CALM    30.32R
$$

WAZ029-290510-
FOOTHILLS OF THE BLUES...WASHINGTON

CITY            SKY/WX      TMP DP  RH  WIND    PRES   REMARKS
WALLA WALLA AP  CLEAR       53  37  54  S9      30.31R
#DAYTON SCHOOL  N/A         50  33  52  E2      30.31R
#LOWDEN 2SE     N/A         49  40  71  E2      30.28R
#PLEASANT VIEW 1N/A         46  38  73  S7      30.33R
#PRESCOTT       N/A         49  41  74  CALM    30.29R
#SUDBURY        N/A         50  N/A N/A CALM    N/A
#WHITMAN COLLEGEN/A         52  39  61  SE5     30.35R
#WAITSBURG 5S   N/A         45  38  76  SE7     30.40R
#WAITSBURG 8N   N/A         46  21  37  S1      30.18R
#WALLA WALLA 5E N/A         50  39  66  S8      N/A
#WALLA WALLA U  N/A         52  41  66  CALM    30.31R
#WHITMAN MISSIONN/A         52  41  66  S3      30.32R
$$

WAZ030-290510-
BLUE MOUNTAINS...WASHINGTON

CITY            SKY/WX      TMP DP  RH  WIND    PRES   REMARKS
#DIXIE 5SE      N/A         45  31  58  S7      30.24S
$$

ORZ009-041-WAZ024-290510-
COLUMBIA RIVER GORGE

CITY            SKY/WX      TMP DP  RH  WIND    PRES   REMARKS
HOOD RIVER AP   CLOUDY      52  41  66  CALM    30.33R
THE DALLES AP   MOCLDY      55  39  55  NW8     30.31S
#ARLINGTON AIRPON/A         50  38  63  W3      29.99S
#CELILO DOT     N/A         56  34  43  S6      N/A
#LYLE           N/A         55  43  64  N1      30.33S
#MOSIER 1S      N/A         51  32  48  W6      30.29S
#MURDOCK        N/A         56  43  62  NW6     30.32S
#RUFUS DOT      N/A         58  32  37  W10     N/A

$$

ORZ510-290510-
NORTH CENTRAL OREGON

CITY            SKY/WX      TMP DP  RH  WIND    PRES   REMARKS
#CHENOWITH 1W   N/A         48  38  68  NW16    N/A    WCI 42
#COW CYN RST AREN/A         47  34  60  NW6     N/A
#DUFUR 9E       N/A         47  37  68  W7      30.36F
#GRASS VALLEY 1SN/A         43  35  73  CALM    30.35F
#KENT DOT       N/A         44  31  60  E2      N/A
#MAUPIN SCHOOL  N/A         52  38  59  CALM    30.32S
#MORO SCHOOL    N/A         48  41  77  W5      30.31F
#SHANIKO 5WSW   N/A         43  29  57  NW6     N/A
#SHANIKO 4NW    N/A         43  33  67  NW5     30.31S
#TYGH VALLEY 2NEN/A         51  39  63  N1      30.29S
#WAPANITIA AIRPON/A         47  38  71  W2      30.32R
#WASCO DOT      N/A         46  38  73  SW3     N/A
#WASCO AIRPORT  N/A         45  37  73  W3      N/A
#WASCO 5NE      N/A         42  36  79  CALM    30.32R
$$

ORZ511-290510-
CENTRAL OREGON

CITY            SKY/WX      TMP DP  RH  WIND    PRES   REMARKS
BEND AIRPORT    PTCLDY      41  28  59  CALM    30.31R
MADRAS AIRPORT  MOCLDY      45  36  70  CALM    30.34R
PRINEVILLE AP   PTCLDY      36  28  72  CALM    30.31R
REDMOND AIRPORT PTCLDY      41  27  57  CALM    30.31R
#BEND 6E        N/A         43  26  51  CALM    30.29R
#BEND 1SW       N/A         41  31  67  CALM    N/A
#BEND-AWBREY    N/A         44  32  62  CALM    30.31R
#BEND-KIM LN    N/A         45  32  60  CALM    30.27S
#CULVER         N/A         47  35  63  CALM    30.28R
#LAKE BILLY CHINN/A         49  19  30  CALM    30.35R
#MADRAS         N/A         48  34  58  N2      N/A
#POWELL BUTTE   N/A         43  28  55  SW1     29.91R
#PRINEVILLE 3N  N/A         42  34  73  CALM    30.26R
#WARM SPRINGS   N/A         54  37  52  SW1     30.27S

$$


ORZ509-290510-
EAST SLOPES OF OREGON CASCADES

CITY            SKY/WX      TMP DP  RH  WIND    PRES   REMARKS
#BLUE BOX PASS  N/A         38  -12 11  CALM    N/A
#CAMP SHERMAN   N/A         40  34  79  CALM    30.40R
#LA PINE 4NW    N/A         38  30  73  CALM    30.35R
#LAVA BUTTE DOT N/A         39  23  52  CALM    N/A
#SISTERS AIRPOR N/A         42  38  86  CALM    30.17S
#SISTERS ODOT   N/A         41  N/A N/A CALM    N/A
#SISTERS 1NW    N/A         42  34  73  N6      N/A
#SISTERS 3N     N/A         40  26  57  CALM    30.31R
#SUNRIVER       N/A         40  31  70  CALM    30.21R
#TUMALO 3W      N/A         46  31  56  N2      30.20R
#WANOGA BUTTE D N/A         40  20  44  CALM    N/A

$$

ORZ044-290510-
LOWER COLUMBIA BASIN...OREGON

CITY            SKY/WX      TMP DP  RH  WIND    PRES   REMARKS
HERMISTON       CLEAR       48  36  63  SE8     30.30S
#BOARDMAN SCHOOLN/A         52  37  56  SW2     30.30S
#BOARDMAN 8SW   N/A         50  39  66  SW3     30.29S
#ECHO 8SW       N/A         47  35  63  SW5     30.27S
#IONE SCHOOL    N/A         51  35  54  SW2     30.30S
#IRRIGON 4NW    N/A         52  40  63  S7      N/A
#UMATILLA       N/A         58  36  44  SW1     30.22R
$$

ORZ507-290510-
NORTHERN FOOTHILLS OF THE BLUES

CITY            SKY/WX      TMP DP  RH  WIND    PRES   REMARKS
PENDLETON AIRPT CLEAR       47  37  68  S7      30.32R
#ADAMS 3WNW     N/A         42  36  79  CALM    30.32R
#ATHENA         N/A         44  38  79  CALM    30.34R
#CAYUSE         N/A         49  39  68  E3      30.31R
#HELIX SCHOOL   N/A         43  37  79  SE2     30.31R
#HELIX 3N       N/A         44  36  73  S7      30.26S
#HOLDMAN 5SE    N/A         48  39  71  S1      30.30R
#HOLDMAN 6E     N/A         47  36  65  W1      30.12R
#M-F FERNDALE   N/A         50  38  63  CALM    30.30R
#M-F GROVE ELEM N/A         48  36  63  CALM    30.30R
#M-FREEWATER 5SEN/A         47  37  68  CALM    30.31
#PENDLETON DNTN N/A         50  31  48  CALM    30.31S
#PDT AQUATIC CTRN/A         50  31  48  CALM    30.34R
#PENDLETON 5NE  N/A         47  38  71  CALM    30.27S
#PDT SUNRIDGE   N/A         46  36  68  CALM    30.33R
#PENDLETON 7NW  N/A         49  38  66  CALM    N/A
#PILOT ROCK     N/A         44  35  70  CALM    30.33R
#TUTUILLA       N/A         43  38  82  SE5     30.31R
#UMAPINE 2E     N/A         45  39  79  SE3     30.29R
#WESTON SCHOOL  N/A         47  35  63  W1      30.30R

$$

ORZ508-290510-
SOUTHERN FOOTHILLS OF THE BLUES

CITY            SKY/WX      TMP DP  RH  WIND    PRES   REMARKS
LEXINGTON       PTCLDY      46  36  68  SE6     30.33S
#AJAX           N/A         47  29  49  CALM    30.22S
#CONDON SCHOOL  N/A         44  36  73  CALM    30.26R
#CONDON 5W      N/A         42  33  70  NW3     30.28S
#FOSSIL SCHOOL  N/A         44  36  73  CALM    30.27R
#HEPPNER EOC    N/A         46  37  71  CALM    30.28R
#HEPPNER 4NE    N/A         44  34  68  SE1     30.32R
#LEXINGTON 2SE  N/A         46  37  71  CALM    30.28F
#MIKKALO        N/A         47  33  58  NW5     30.29F
#OLEX 4N        N/A         51  37  59  SW7     30.29S
#RUGGS 5NE      N/A         44  32  62  W2      30.49S
#RUGGS 2SW      N/A         43  35  73  S6      30.34R

$$

ORZ502-503-290510-
BLUE MOUNTAINS

CITY            SKY/WX      TMP DP  RH  WIND    PRES   REMARKS
MEACHAM         CLEAR       35  31  85  CALM    30.33R
#BATTLE MTN DOT N/A         37  37  100 N1      N/A
#HEPPNER 15SE   N/A         35  31  85  CALM    30.24R
#LADD CYN SMT   N/A         38  27  64  N2      N/A
#LADD CREEK ODOTN/A         40   8  26  SW1     N/A
#N POWDER DOT   N/A         43  31  62  N3      N/A
#PIKES PEAK     N/A         44  32  62  S12     27.99S WCI 38
#TOLLGATE       N/A         33  31  92  CALM    30.23R
#TROY SCHOOL    N/A         45  38  76  CALM    30.18R
#UKIAH          N/A         38  32  79  CALM    30.35R
#WESTON 4E      N/A         42  35  76  E2      30.27R
$$

ORZ505-290510-
JOHN DAY BASIN

CITY            SKY/WX      TMP DP  RH  WIND    PRES   REMARKS
JOHN DAY        PTCLDY      47  31  53  E5      30.33R
#JOHN DAY KJDY  N/A         45  38  76  CALM    30.35R
#DAYVILLE SCHOOLN/A         47  33  58  CALM    30.27R
#MITCHELL       N/A         44  36  73  E1      30.43R
#MONUMENT HS    N/A         47  32  56  CALM    30.30R
#MT. VERNON 5SE N/A         40  32  73  CALM    30.27R
#WINLOCK        N/A         45  31  58  N2      30.37R
$$

ORZ506-290510-
OCHOCO AND JOHN DAY HIGHLANDS

CITY            SKY/WX      TMP DP  RH  WIND    PRES   REMARKS
#BUCK CREEK DOT N/A         47  47  100 CALM    N/A
#HORSE RIDGE DO N/A         42  22  45  W3      N/A
#KEYES SMT DOT  N/A         41  27  57  CALM    N/A
#PAULINA SCHOOL N/A         69  35  28  CALM    30.24R
#PINE MTN OBS   N/A         38  22  52  CALM    N/A
#PRAIRIE CITY   N/A         33  25  72  CALM    30.47R
#SENECA         N/A         39  N/A N/A CALM    N/A
#SENECA 9NW     N/A         35  30  82  CALM    30.29R
$$

ORZ049-290510-
GRANDE RONDE VALLEY

CITY            SKY/WX      TMP DP  RH  WIND    PRES   REMARKS
LA GRANDE       CLEAR       43  27  53  MISG    30.32R
#COVE           N/A         42  36  79  N1      30.31R
#COVE SCHOOL    N/A         43  35  73  E3      30.27S
#ELGIN 3N       N/A         39  31  73  CALM    30.29R
#ELGIN 1E       N/A         45  35  68  CALM    N/A
#IMBLER SCHOOL  N/A         42  32  67  N1      30.26R
#ISLAND CITY 4N N/A         51  47  86  CALM    30.32S
#LADD CYN DOT   N/A         44  32  62  SE14    N/A    WCI 37
#UNION 1S       N/A         42  33  70  CALM    30.22R
$$

ORZ050-290510-
WALLOWA COUNTY

CITY            SKY/WX      TMP DP  RH  WIND    PRES   REMARKS
JOSEPH AIRPORT  CLEAR       37  30  75  S3      30.35R
#ENTERPRISE HS  N/A         39  31  73  CALM    30.31R
#IMNAHA 10S     N/A         45  32  60  SW3     30.30R
#JOSEPH 3N      N/A         33  27  78  S1      30.32R
#JOSEPH 3W      N/A         34  27  75  SW2     30.15R
#LOSTINE        N/A         38  33  82  SW1     30.13R
#MT HOWARD 8000 N/A         30  13  49  SE2     30.32R
#PROMISE 1S     N/A         37  31  79  E1      30.48R
#SHEEP RDG 7000 N/A         32  20  61  CALM    30.37R
#WALLOWA SCHOOL N/A         40  34  79  CALM    31.26R



$$



USA.gov is the U.S. government's official web portal to all federal, state and local government web resources and services.